DateTimeUTC,F1_A11,F1_S11,BsB_S11,BsG_S11,BsR_S11,BbsB_S11,BbsG_S11,BbsR_S11,BaB_A11,BaG_A11,BaR_A11,Tu_S11,T_S11,Uu_S11,U_S11,P_S11,T1_A11
2021-12-20T15:00:00Z,00000200,21000000,,,,,,,-000.13,-000.27,-000.08,19.3,26.2,,00.0,0668.9,31.1
2021-12-20T15:01:00Z,00000200,21000000,,,,,,,-000.16,-000.08,-000.19,19.3,26.3,,00.0,0668.9,31.1
2021-12-20T15:02:00Z,00000200,21000000,,,,,,,-000.10,-000.12,0000.49,19.3,26.3,,00.0,0668.9,31.1
2021-12-20T15:03:00Z,00000200,61000000,,,,,,,-000.27,0000.34,-000.53,19.3,26.3,,00.0,0668.9,31.1
2021-12-20T15:04:00Z,00000200,41000000,-000.50,-000.16,0000.16,-000.20,-000.01,0000.20,-000.16,-000.74,0000.07,19.7,26.2,,00.0,0669.9,31.1
2021-12-20T15:05:00Z,00000200,01000000,-000.03,0000.01,0000.18,-000.08,-000.14,0000.49,0000.29,0000.15,-000.13,19.8,26.2,,00.0,0670.1,31.1
2021-12-20T15:06:00Z,00000200,01000000,0000.42,0000.27,-000.00,-000.53,-000.15,-000.06,-000.54,-000.26,0000.00,19.7,26.2,,00.0,0670.0,31.1
2021-12-20T15:07:00Z,00000200,01000000,0000.21,0000.48,0000.22,0000.26,-000.12,0000.24,0000.31,-000.10,-000.01,19.7,26.2,,00.0,0670.0,31.1
2021-12-20T15:08:00Z,00000200,01000000,0000.09,-000.08,0000.34,-000.29,-000.27,0000.41,-000.34,0000.06,-000.03,19.6,26.2,,00.0,0670.0,31.1
2021-12-20T15:09:00Z,00000200,01000000,-000.85,0000.06,0000.05,-000.32,0000.08,0000.14,-000.06,-000.11,-000.23,19.6,26.1,,00.0,0669.9,31.1
2021-12-20T15:10:00Z,00000200,01000000,0000.37,-000.08,-000.30,0000.27,0000.01,-000.47,0000.03,-000.02,0000.10,19.5,26.1,,00.0,0669.9,31.1
2021-12-20T15:11:00Z,00000200,01000000,0001.02,0000.11,0000.42,0000.34,0000.02,-000.08,0000.08,0000.36,0000.21,19.5,26.1,,00.0,0669.9,31.1
2021-12-20T15:12:00Z,00000200,01000000,0000.33,0000.12,-000.16,-000.35,0000.24,0000.11,0000.53,0000.12,0000.07,19.5,26.0,,00.0,0669.9,31.1
2021-12-20T15:13:00Z,00000200,01000000,-000.81,0000.41,0000.44,-000.55,0000.07,0000.25,-000.09,-000.03,0000.00,19.6,26.1,,00.0,0669.9,31.1
2021-12-20T15:14:00Z,00000200,01000000,-000.54,0000.33,0000.30,-000.02,-000.41,0000.34,-000.13,-000.00,-000.42,19.6,26.1,,00.0,0669.9,31.1
2021-12-20T15:15:00Z,00000200,01000000,-000.15,0000.24,-000.16,-000.07,-000.27,0000.04,0000.05,0000.10,0000.68,19.7,26.1,,00.0,0669.9,31.1
2021-12-20T15:16:00Z,00000200,01000000,0000.33,-000.00,-000.02,-000.23,-000.29,0000.03,0000.04,0000.09,-000.36,19.8,26.1,,00.0,0670.0,31.1
2021-12-20T15:17:00Z,00000200,01000000,-000.49,-000.12,0000.28,-000.13,-000.21,0000.23,0000.26,0000.15,0000.44,19.8,26.1,,00.0,0670.0,31.1
2021-12-20T15:18:00Z,00000200,01000000,-000.50,-000.31,0000.02,-000.47,-000.13,0000.18,-000.14,0000.27,-000.34,19.9,26.2,,00.0,0670.0,31.1
2021-12-20T15:19:00Z,00000200,01000000,0000.24,0000.18,0000.20,-000.50,0000.15,-000.21,0000.03,-000.74,0000.18,19.9,26.2,,00.0,0669.9,31.1
2021-12-20T15:20:00Z,00000200,01000000,-000.01,-000.03,0000.18,0000.39,-000.18,-000.09,0000.12,0000.59,0000.05,19.9,26.2,,00.0,0669.9,31.2
2021-12-20T15:21:00Z,00000200,01000000,0000.56,-000.02,0000.27,-000.06,-000.09,0000.04,0000.33,0000.05,0000.52,19.8,26.2,,00.0,0669.9,31.1
2021-12-20T15:22:00Z,00000200,01000000,0000.65,-000.21,0000.38,-000.17,-000.34,-000.16,-000.05,0000.43,-000.11,19.8,26.2,,00.0,0669.9,31.1
2021-12-20T15:23:00Z,00000200,01000000,-000.16,0000.19,0000.11,-000.26,0000.12,0000.15,0000.61,0000.09,-000.08,19.7,26.1,,00.0,0669.8,31.1
2021-12-20T15:24:00Z,00000200,01000000,-000.44,-000.31,0000.06,-000.38,-000.18,0000.06,-000.02,-000.06,0000.30,19.6,26.1,,00.0,0669.8,31.1
2021-12-20T15:25:00Z,00000200,01000000,-000.53,0000.21,0000.05,-000.44,0000.23,0000.10,-000.26,-000.23,-000.41,19.6,26.1,,00.0,0669.8,31.1
2021-12-20T15:26:00Z,00000200,01000000,-000.04,0000.02,0000.30,0000.42,0000.11,0000.12,-000.00,0000.53,0000.17,19.6,26.1,,00.0,0669.8,31.1
2021-12-20T15:27:00Z,00000200,01000000,-000.30,0000.05,0000.04,0000.36,-000.21,0000.28,0000.16,-000.02,0000.33,19.6,26.1,,00.0,0669.8,31.1
2021-12-20T15:28:00Z,00000200,01000000,-000.48,0000.25,0000.36,0000.27,0000.12,0000.48,0000.28,0000.26,-000.09,19.6,26.1,,00.0,0669.8,31.1
2021-12-20T15:29:00Z,00000200,01000000,0000.10,0000.23,-000.08,0000.80,-000.23,-000.38,0000.29,0000.26,0000.19,19.7,26.1,,00.0,0669.8,31.1
2021-12-20T15:30:00Z,00000200,01000000,-000.21,0000.30,0000.28,0000.25,0000.08,0000.01,0000.40,0000.13,0000.19,19.7,26.1,,00.0,0669.8,31.1
2021-12-20T15:31:00Z,00000200,01000000,-001.27,0000.30,0000.07,0000.03,-000.20,-000.01,0000.00,-000.04,-000.05,19.8,26.1,,00.0,0669.8,31.1
2021-12-20T15:32:00Z,00000200,01000000,0000.45,0000.28,0000.11,-000.23,-000.03,0000.06,0000.04,0000.31,0000.21,19.8,26.1,,00.0,0669.8,31.1
2021-12-20T15:33:00Z,00000200,01000000,-000.26,-000.16,0000.02,0000.45,0000.22,-000.08,0000.14,-000.14,0000.05,19.9,26.2,,00.0,0669.8,31.1
2021-12-20T15:34:00Z,00000200,01000000,-000.07,-000.15,-000.09,0000.07,0000.19,0000.31,-000.10,0000.17,0000.22,19.9,26.2,,00.0,0669.7,31.1
2021-12-20T15:35:00Z,00000200,01000000,0000.82,0000.14,0000.03,-000.17,-000.15,0000.22,0000.63,0000.36,0000.13,19.8,26.2,,00.0,0669.7,31.1
2021-12-20T15:36:00Z,00000200,01000000,0000.20,0000.38,0000.59,-000.01,-000.23,-000.11,0000.40,0000.16,0000.12,19.8,26.2,,00.0,0669.6,31.1
2021-12-20T15:37:00Z,00000200,01000000,-000.88,0000.06,0000.11,0000.17,0000.07,-000.28,0000.12,0000.28,-000.02,19.7,26.1,,00.0,0669.6,31.1
2021-12-20T15:38:00Z,00000200,01000000,-000.10,0000.05,0000.19,-000.57,-000.03,0000.23,-000.12,0000.13,0000.25,19.7,26.1,,00.0,0669.6,31.1
2021-12-20T15:39:00Z,00000200,01000000,-000.40,-000.01,0000.13,0000.22,0000.09,0000.05,-000.03,0000.10,0000.06,19.6,26.1,,00.0,0669.6,31.1
2021-12-20T15:40:00Z,00000200,01000000,-000.65,0000.03,-000.16,0000.21,0000.11,0000.10,0000.04,-000.07,-000.01,19.6,26.1,,00.0,0669.6,31.1
2021-12-20T15:41:00Z,00000200,01000000,0000.23,-000.00,0000.09,0000.74,-000.13,0000.15,0000.05,0000.19,0000.02,19.5,26.0,,00.0,0669.6,31.1
2021-12-20T15:42:00Z,00000200,01000000,-000.47,0000.30,0000.17,-000.54,-000.25,0000.02,0000.28,-000.07,0000.20,19.5,26.0,,00.0,0669.6,31.1
2021-12-20T15:43:00Z,00000200,01000000,-000.01,-000.07,-000.03,-000.40,0000.03,-000.05,0000.53,0000.46,0000.06,19.6,26.0,,00.0,0669.6,31.1
2021-12-20T15:44:00Z,00000200,01000000,0000.25,0000.33,0000.07,-000.16,0000.16,-000.05,-000.26,-000.14,0000.02,19.7,26.0,,00.0,0669.6,31.1
2021-12-20T15:45:00Z,00000200,01000000,0000.51,0000.54,0000.15,0000.24,0000.09,0000.02,0000.06,-000.14,0000.12,19.7,26.0,,00.0,0669.6,31.1
2021-12-20T15:46:00Z,00000200,01000000,0000.27,0000.13,0000.56,-000.67,-000.22,0000.03,-000.09,0000.24,0000.12,19.8,26.1,,00.0,0669.6,31.1
2021-12-20T15:47:00Z,00000200,01000000,0000.23,-000.06,-000.05,-000.53,-000.01,0000.43,0000.01,-000.31,0000.04,19.8,26.1,,00.0,0669.6,31.1
2021-12-20T15:48:00Z,00000200,01000000,0000.13,-000.06,0000.48,-000.55,-000.38,0000.23,0000.13,0000.58,-000.00,19.9,26.1,,00.0,0669.6,31.1
2021-12-20T15:49:00Z,00000200,01000000,-000.87,0000.15,-000.30,0000.23,-000.12,-000.11,-000.00,-000.49,0000.12,19.9,26.1,,00.0,0669.6,31.1
2021-12-20T15:50:00Z,00000200,01000000,-000.89,0000.03,-000.04,0000.14,0000.11,-000.04,-000.31,0000.00,-000.61,19.9,26.2,,00.0,0669.6,31.2
2021-12-20T15:51:00Z,00000200,01000000,-000.44,0000.13,0000.08,0000.17,-000.18,0000.05,0000.38,0000.52,0000.43,19.9,26.2,,00.0,0669.6,31.1
2021-12-20T15:52:00Z,00000200,01000000,-000.17,0000.08,0000.13,0000.07,0000.05,-000.07,-000.12,-000.01,-000.15,19.8,26.2,,00.0,0669.5,31.1
2021-12-20T15:53:00Z,00000200,01000000,-000.13,0000.29,0000.19,-000.81,0000.19,0000.17,0000.12,-000.10,0000.05,19.8,26.1,,00.0,0669.5,31.1
2021-12-20T15:54:00Z,00000200,01000000,-000.40,0000.21,0000.35,0000.41,0000.14,0000.32,0000.14,-000.09,0000.25,19.7,26.1,,00.0,0669.5,31.1
2021-12-20T15:55:00Z,00000200,01000000,0000.52,0000.10,0000.08,0000.23,-000.12,0000.20,-000.44,-000.18,-000.42,19.6,26.1,,00.0,0669.4,31.1
2021-12-20T15:56:00Z,00000200,01000000,0000.11,-000.19,0000.12,0001.25,-000.32,-000.08,0000.20,-000.23,0000.46,19.6,26.1,,00.0,0669.4,31.1
2021-12-20T15:57:00Z,00000200,41000000,,,,,,,-000.52,0000.01,-000.47,19.6,26.1,,00.0,0669.5,31.1
2021-12-20T15:58:00Z,00000200,61000000,,,,,,,0000.51,0000.25,0000.16,19.4,26.2,,00.0,0668.5,31.1
2021-12-20T15:59:00Z,00000200,21000000,,,,,,,-000.13,-000.19,-000.02,19.4,26.3,,00.0,0668.5,31.1
